Home > Weather > Ostrava > Past weeks

Flag for Czech Republic Past Weather in Ostrava, Czech Republic — Yesterday and Last 2 Weeks

Now
76 °F

Scattered clouds.


Feels Like: 77 °F
Forecast: 65 / 82 °F
Wind: 3 mph from North

Location: Ostrava / Mosnov

Current Time: Jul 26, 2016 at 12:23:49 PM

Latest Report: Jul 26, 2016 at 11:00 AM


Visibility: 8 mi

Pressure: 30.03 "Hg

Humidity: 71%

Dew Point: 66 °F

Location of OstravaLocation

Past Weather in Ostrava — Graph

°F

Ostrava Temperature Yesterday

Maximum temperature yesterday: 82 °F (at 4:00 PM)
Minimum temperature yesterday: 65 °F (at 6:00 AM)
Average temperature yesterday: 73 °F

High & Low Weather Summary for the Past Weeks

 TemperatureHumidityPressure
High92 °F (Jul 11, 4:00 PM)100% (Jul 13, 4:00 AM)30.22 "Hg (Jul 13, 4:00 AM)
Low52 °F (Jul 15, 2:00 AM)38% (Jul 11, 4:00 PM)29.65 "Hg (Jul 14, 10:00 AM)
Average68 °F78%30.01 "Hg
* Reported Jul 11 11:00 AM — Jul 26 11:00 AM, Ostrava, Weather by CustomWeather, © 2016

Note: Actual official high and low records may vary slightly from our data, if they occured in-between our weather recording intervals... More about our weather records

Advertising

Ostrava Weather History for the Previous 24 Hours

Scroll right to see more
 ConditionsComfort  
Time TempWeatherWind HumidityBarometerVisibility
11:00 AM
Tue, Jul 26
76 °FScattered clouds.3 mph71%30.03 "Hg8 mi
10:00 AM75 °FScattered clouds.N/A75%30.03 "Hg7 mi
9:00 AM71 °FFog.N/A84%30.05 "Hg4 mi
8:00 AM68 °FFog.N/A92%30.04 "Hg2 mi
7:00 AM66 °FFog.N/A96%30.05 "Hg1 mi
6:00 AM65 °FFog.1 mph98%30.05 "Hg1 mi
5:00 AM64 °FFog.N/A98%30.04 "Hg1 mi
4:00 AM63 °FFog.N/A98%30.03 "Hg2 mi
3:00 AM64 °FFog.1 mph99%30.03 "Hg4 mi
2:00 AM63 °FFog.N/A96%30.03 "Hg4 mi
1:00 AM66 °FFog.N/A96%30.03 "Hg4 mi
12:00 AM67 °FFog.1 mph93%30.03 "Hg5 mi
11:00 PM
Mon, Jul 25
68 °FPassing clouds.N/A90%30.02 "Hg9 mi
10:00 PM69 °FPassing clouds.2 mph83%30.02 "Hg9 mi
9:00 PM73 °FPassing clouds.3 mph73%30.00 "Hg9 mi
8:00 PM75 °FPassing clouds.2 mph73%29.98 "Hg9 mi
7:00 PM77 °FScattered clouds.3 mph65%29.98 "Hg9 mi
6:00 PM82 °FScattered clouds.3 mph56%29.96 "Hg12 mi
5:00 PM82 °FScattered clouds.3 mph56%29.96 "Hg12 mi
4:00 PM82 °FScattered clouds.3 mph55%29.97 "Hg12 mi
3:00 PM81 °FScattered clouds.3 mph60%29.98 "Hg10 mi
2:00 PM80 °FPartly sunny.N/A63%29.99 "Hg10 mi
1:00 PM77 °FScattered clouds.N/A67%30.01 "Hg9 mi
12:00 PM76 °FPartly sunny.N/A69%30.02 "Hg8 mi
Weather by CustomWeather, © 2016

See weather overviewHow to use our weather pages